This demonstration page uses our WeatherBlox Daily Observations layout. Learn more.

Left ArrowRight Arrow

39.01783, -85.05884

Hourly Observations for May 5, 2015

Temp ( °F °C ) Dew Point ( °F °C ) Humidity (%) Winds ( mph kmh ) Pressure ( in mb ) Visibility ( mi km ) Precip ( " mm )
12:52 am 00:52 Mostly Cloudy 68 20 57 13.9 68 68 SSW 6 9 30.18 1022 10 16 0.00 0.00
1:52 am 01:52 Partly Cloudy 67 19.4 57 13.9 71 71 NW 5 7 30.19 1022 10 16 0.00 0.00
2:52 am 02:52 Partly Cloudy 64 17.8 57 13.9 78 78 NE 3 6 30.19 1022 9 14 0.00 0.00
3:52 am 03:52 Mostly Cloudy 63 17.2 57 13.9 81 81 SE 3 6 30.19 1022 9 14 0.00 0.00
4:52 am 04:52 Partly Cloudy 62 16.7 57 13.9 84 84 Calm 30.20 1023 8 13 0.00 0.00
5:52 am 05:52 Partly Cloudy 60 15.6 56 13.3 86 86 Calm 30.21 1023 7 11 0.00 0.00
6:52 am 06:52 Mostly Cloudy with Mist and Fog 58 14.4 55 12.8 90 90 Calm 30.22 1024 6 10 0.00 0.00
7:52 am 07:52 Partly Cloudy 63 17.2 59 15 87 87 SSE 3 6 30.24 1024 7 11 0.00 0.00
8:52 am 08:52 Partly Cloudy 68 20 59 15 73 73 S 5 7 30.25 1024 8 13 0.00 0.00
9:52 am 09:52 Mostly Sunny 72 22.2 58 14.4 61 61 SSW 3 6 30.25 1024 10 16 0.00 0.00
10:52 am 10:52 Mostly Sunny 76 24.4 56 13.3 50 50 W 8 13 30.25 1024 10 16 0.00 0.00
11:52 am 11:52 Partly Cloudy 79 26.1 56 13.3 45 45 W 9 15 30.24 1024 10 16 0.00 0.00
12:52 pm 12:52 Mostly Cloudy 80 26.7 53 11.7 39 39 WSW 8 13 30.23 1024 10 16 0.00 0.00
1:52 pm 13:52 Mostly Cloudy 80 26.7 54 12.2 41 41 WSW 9 15 30.22 1023 10 16 0.00 0.00
2:52 pm 14:52 Partly Cloudy 81 27.2 53 11.7 38 38 SW 8 13 30.21 1023 10 16 0.00 0.00
3:52 pm 15:52 Partly Cloudy 80 26.7 52 11.1 38 38 SW 8 13 30.19 1023 8 13 0.00 0.00
4:52 pm 16:52 Partly Cloudy 81 27.2 53 11.7 38 38 WSW 6 9 30.18 1022 10 16 0.00 0.00
5:52 pm 17:52 Partly Cloudy 80 26.7 54 12.2 41 41 S 8 13 30.16 1021 10 16 0.00 0.00
6:52 pm 18:52 Mostly Sunny 80 26.7 53 11.7 39 39 SSW 5 7 30.16 1021 10 16 0.00 0.00
7:52 pm 19:52 Mostly Sunny 77 25 53 11.7 43 43 S 5 7 30.15 1021 10 16 0.00 0.00
8:52 pm 20:52 Partly Cloudy 73 22.8 53 11.7 50 50 SSW 3 6 30.17 1022 10 16 0.00 0.00
9:52 pm 21:52 Clear 66 18.9 55 12.8 68 68 S 3 6 30.18 1022 10 16 0.00 0.00
10:52 pm 22:52 Clear 69 20.6 53 11.7 57 57 S 3 6 30.18 1022 10 16 0.00 0.00
11:52 pm 23:52 Clear 65 18.3 54 12.2 68 68 Calm 30.18 1022 10 16 0.00 0.00

Powered by AerisWeather